Torna al catalogo

CZ-6A DEB

AttivoPO
NORAD 61108·DEBRIS·🇨🇳 China

Lanciato Aug 6, 2024 da Taiyuan Satellite Launch Center

Loading…

Prossimi Passaggi (prossime 24 ore)

TLE

AggiornatoSource: Space-Track

Epoca: Sep 14, 2026, 07:06 UTC

1 61108U 24140PA  26257.29614465  .00002468  00000-0  97583-3 0  9991
2 61108  88.9883 263.1024 0038289 219.4795 140.3609 14.28336399105532

Traccia CZ-6A DEB in tempo reale con AllMySat

Download on the App Store